This is the latest recevied weather packets stored in our database for station/object EA5HPA-11. If no packets are shown the sender has not sent any weather packets the latest 10 day(s).
| Time | Temp. | Humidity | Pressure | Rain* | Wind** | Luminosity | Snow |
|---|---|---|---|---|---|---|---|
| 1788085258 | 29.44° C | 51% | 1018 hPa | 0 mm | - | - | - |
| 1788084957 | 28.89° C | 49% | 1018 hPa | 0 mm | - | - | - |
| 1788084656 | 28.89° C | 54% | 1018 hPa | 0 mm | - | - | - |
| 1788084355 | 28.89° C | 54% | 1018 hPa | 0 mm | - | - | - |
| 1788084055 | 28.33° C | 55% | 1018 hPa | 0 mm | - | - | - |
| 1788083754 | 28.33° C | 55% | 1018 hPa | 0 mm | - | - | - |
| 1788083453 | 28.33° C | 56% | 1018 hPa | 0 mm | - | - | - |
| 1788083152 | 28.33° C | 56% | 1018 hPa | 0 mm | - | - | - |
| 1788082851 | 28.33° C | 57% | 1018 hPa | 0 mm | - | - | - |
| 1788082550 | 28.33° C | 57% | 1018 hPa | 0 mm | - | - | - |
| 1788082249 | 26.11° C | 60% | 1018 hPa | 0 mm | - | - | - |
| 1788081948 | 26.11° C | 60% | 1018 hPa | 0 mm | - | - | - |
| 1788081648 | 26.11° C | 61% | 1018 hPa | 0 mm | - | - | - |
| 1788081347 | 26.11° C | 61% | 1018 hPa | 0 mm | - | - | - |
| 1788081046 | 25.56° C | 63% | 1018 hPa | 0 mm | - | - | - |
| 1788080745 | 26.11° C | 64% | 1018 hPa | 0 mm | - | - | - |
| 1788080444 | 26.11° C | 64% | 1018 hPa | 0 mm | - | - | - |
| 1788080144 | 26.11° C | 64% | 1018 hPa | 0 mm | - | - | - |
| 1788079843 | 26.11° C | 64% | 1018 hPa | 0 mm | - | - | - |
| 1788079542 | 26.11° C | 63% | 1018 hPa | 0 mm | - | - | - |
| 1788079241 | 25.56° C | 64% | 1018 hPa | 0 mm | - | - | - |
| 1788078940 | 25.56° C | 64% | 1018 hPa | 0 mm | - | - | - |
| 1788078640 | 25° C | 68% | 1018 hPa | 0 mm | - | - | - |
| 1788078339 | 25° C | 67% | 1018 hPa | 0 mm | - | - | - |
| 1788078038 | 24.44° C | 67% | 1018 hPa | 0 mm | - | - | - |
* Rain latest hour (hover to see other rain measurements)
** Current wind speed in m/s (hover to see current wind gust speed)